Tracking 30970 objects as of 3-Jul-2025
HD Live streaming from Space Station
objects crossing your sky now

STARLINK-30954

Track STARLINK-30954 now!
10-day predictions
STARLINK-30954 is classified as:


NORAD ID: 58407
Int'l Code: 2023-180F
Perigee: 565.5 km
Apogee: 567.0 km
Inclination: 43.0 °
Period: 95.8 minutes
Semi major axis: 6937 km
RCS: Unknown
Launch date: November 22, 2023
Source: United States (US)
Launch site: AIR FORCE EASTERN TEST RANGE (AFETR)
Your satellite tracking list
STARLINK-1302
Track 1 satellite(s)




NASA's NSSDC Master Catalog

Two Line Element Set (TLE):
1 58407U 23180F   25183.69680710  .00000193  00000-0  29370-4 0  9992
2 58407  43.0018 334.0776 0001088 261.9932  98.0787 15.02536921 89988
Source of the keplerian elements: AFSPC